Overview Statistics Trail Chart Weather Telemetry Raw packets
 

This is the latest recevied weather packets stored in our database for station/object KG4GJX. If no packets are shown the sender has not sent any weather packets the latest 10 day(s).

<< 17 18 19 20 21 22 23 >>
Time Temp. Humidity Pressure Rain* Wind** Luminosity Snow
1788271077 26.67° C 96% 1022 hPa 0 mm - - -
1788270415 25.56° C 100% 1022 hPa 0 mm - - -
1788269752 24.44° C 100% 1022 hPa 0 mm - - -
1788269090 23.89° C 100% 1022 hPa 0 mm - - -
1788268428 23.89° C 100% 1022 hPa 0 mm - - -
1788267765 23.33° C 100% 1022 hPa 0 mm - - -
1788267103 22.78° C 100% 1021.6 hPa 0 mm - - -
1788266441 22.22° C 100% 1021.6 hPa 0 mm - - -
1788265778 21.67° C 100% 1021.6 hPa 0 mm - - -
1788265116 21.11° C 100% 1021.6 hPa 0 mm - - -
1788264453 20.56° C 100% 1021.3 hPa 0 mm - - -
1788263791 20° C 100% 1021.3 hPa 0 mm - - -
1788263128 20° C 100% 1020.9 hPa 0 mm - - -
1788261806 19.44° C 100% 1020.6 hPa 0 mm - - -
1788261143 20° C 100% 1020.6 hPa 0 mm - - -
1788256521 20° C 100% 1020.3 hPa 0 mm - - -
1788255859 20° C 100% 1019.9 hPa 0 mm - - -
1788255219 20.56° C 100% 1020.3 hPa 0 mm - - -
1788254534 20.56° C 100% 1019.9 hPa 0 mm - - -
1788253872 20.56° C 100% 1020.3 hPa 0 mm - - -
1788253209 20.56° C 100% 1019.9 hPa 0 mm - - -
1788252547 20.56° C 100% 1019.6 hPa 0 mm - - -
1788251884 21.11° C 100% 1019.6 hPa 0 mm - - -
1788250562 20.56° C 100% 1019.6 hPa 0 mm - - -
1788249899 21.11° C 100% 1019.9 hPa 0 mm - - -

* Rain latest hour (hover to see other rain measurements)
** Current wind speed in m/s (hover to see current wind gust speed)